����,���ϕ���(m/s),���ϕ���,�ő�u�ԕ���(m/s),�ő啗��������,�C��(��),���x(%),10���Ԉړ��ώZ�J��(mm),1���Ԉړ��ώZ�J��(mm),���J��(mm),�݌v�J��(mm)
2022-12-19T00:00:00+09:00,1.7,��,2.5,��,-2.7,69.9,0,0,0,0
2022-12-19T00:01:00+09:00,1.7,��,2.3,�쓌,-2.8,70,0,0,0,0
2022-12-19T00:02:00+09:00,1.7,��쓌,2.3,�쓌,-2.8,70.7,0,0,0,0
2022-12-19T00:03:00+09:00,1.6,��쓌,2.3,�쓌,-2.8,70.9,0,0,0,0
2022-12-19T00:04:00+09:00,1.4,��쓌,2.3,�쓌,-2.8,70.9,0,0,0,0
2022-12-19T00:05:00+09:00,1.3,��,2.3,�쓌,-2.9,70.9,0,0,0,0
2022-12-19T00:06:00+09:00,1.3,��,2.3,�쓌,-2.9,71.5,0,0,0,0
2022-12-19T00:07:00+09:00,1.2,��,2.3,�쓌,-2.9,71.9,0,0,0,0
2022-12-19T00:08:00+09:00,1.1,��,2.3,�쓌,-2.8,72,0,0,0,0
2022-12-19T00:09:00+09:00,1,��,2.3,�쓌,-2.7,71.7,0,0,0,0
2022-12-19T00:10:00+09:00,1,��,2,�쓌,-2.7,71.1,0,0,0,0
2022-12-19T00:11:00+09:00,0.9,��,1.8,�쓌,-2.6,70.9,0,0,0,0
2022-12-19T00:12:00+09:00,1,��,2.2,���쓌,-2.5,69.9,0,0,0,0
2022-12-19T00:13:00+09:00,1.1,��,3.4,�쓌,-2.5,69.2,0,0,0,0
2022-12-19T00:14:00+09:00,1.3,��쓌,3.4,�쓌,-2.4,69.1,0,0,0,0
2022-12-19T00:15:00+09:00,1.5,��쓌,3.4,�쓌,-2.4,67,0,0,0,0
2022-12-19T00:16:00+09:00,1.5,�쓌,3.4,�쓌,-2.5,67.1,0,0,0,0
2022-12-19T00:17:00+09:00,1.6,�쓌,3.4,�쓌,-2.7,68.1,0,0,0,0
2022-12-19T00:18:00+09:00,1.8,�쓌,3.4,�쓌,-2.8,69.3,0,0,0,0
2022-12-19T00:19:00+09:00,1.8,�쓌,3.4,�쓌,-2.8,70.5,0,0,0,0
2022-12-19T00:20:00+09:00,1.9,��쓌,3.4,�쓌,-2.8,71.1,0,0,0,0
2022-12-19T00:21:00+09:00,2,��쓌,3.4,�쓌,-2.8,70.9,0,0,0,0
2022-12-19T00:22:00+09:00,2,��쓌,3.4,�쓌,-2.8,70.5,0,0,0,0
2022-12-19T00:23:00+09:00,1.9,��쓌,3,�쓌,-2.8,69.9,0,0,0,0
2022-12-19T00:24:00+09:00,1.9,��쓌,3.1,�쓌,-2.7,70.8,0,0,0,0
2022-12-19T00:25:00+09:00,1.9,��쓌,3.1,�쓌,-2.5,70.2,0,0,0,0
2022-12-19T00:26:00+09:00,1.9,��쓌,3.1,�쓌,-2.3,67.9,0,0,0,0
2022-12-19T00:27:00+09:00,1.9,��쓌,3.1,�쓌,-2.3,66.2,0,0,0,0
2022-12-19T00:28:00+09:00,2,�쓌,3.1,�쓌,-2.1,66.1,0,0,0,0
2022-12-19T00:29:00+09:00,2.1,�쓌,3.1,�쓌,-2.1,64.3,0,0,0,0
2022-12-19T00:30:00+09:00,2.2,�쓌,3.4,�쓌,-2.1,63.9,0,0,0,0
2022-12-19T00:31:00+09:00,2.3,�쓌,3.4,�쓌,-2.3,65.5,0,0,0,0
2022-12-19T00:32:00+09:00,2.3,�쓌,3.4,�쓌,-2.3,66.2,0,0,0,0
2022-12-19T00:33:00+09:00,2.3,�쓌,3.4,�쓌,-2.5,66.3,0,0,0,0
2022-12-19T00:34:00+09:00,2.3,�쓌,3.4,�쓌,-2.6,67.3,0,0,0,0
2022-12-19T00:35:00+09:00,2.3,��쓌,3.5,��쐼,-2.8,68.5,0,0,0,0
2022-12-19T00:36:00+09:00,2.4,��쓌,3.5,��쐼,-3,70.1,0,0,0,0
2022-12-19T00:37:00+09:00,2.4,��쓌,3.5,��쐼,-3,71.6,0,0,0,0
2022-12-19T00:38:00+09:00,2.3,��쓌,3.5,��쐼,-3,72.2,0,0,0,0
2022-12-19T00:39:00+09:00,2.2,��쓌,3.5,��쐼,-2.9,71.8,0,0,0,0
2022-12-19T00:40:00+09:00,2.1,��,3.5,��쐼,-3,71.1,0,0,0,0
2022-12-19T00:41:00+09:00,2,��,3.5,��쐼,-3,71.3,0,0,0,0
2022-12-19T00:42:00+09:00,2,��,3.5,��쐼,-3,71.7,0,0,0,0
2022-12-19T00:43:00+09:00,2,��,3.5,��쐼,-2.9,71.9,0,0,0,0
2022-12-19T00:44:00+09:00,1.9,��,3.5,��쐼,-2.8,71.5,0,0,0,0
2022-12-19T00:45:00+09:00,1.9,��,3.3,��쐼,-2.7,70.6,0,0,0,0
2022-12-19T00:46:00+09:00,1.7,��,2.6,��,-2.6,69.6,0,0,0,0
2022-12-19T00:47:00+09:00,1.6,��,2.5,��,-2.5,68.8,0,0,0,0
2022-12-19T00:48:00+09:00,1.6,��,2.3,��,-2.4,67.7,0,0,0,0
2022-12-19T00:49:00+09:00,1.5,��,2.3,��,-2.3,66.5,0,0,0,0
2022-12-19T00:50:00+09:00,1.5,��,2.3,��,-2.1,65.9,0,0,0,0
2022-12-19T00:51:00+09:00,1.5,��,2.8,��쐼,-1.9,65.3,0,0,0,0
2022-12-19T00:52:00+09:00,1.5,��,2.8,��쐼,-1.7,63,0,0,0,0
2022-12-19T00:53:00+09:00,1.5,��,2.8,��쐼,-1.6,61.5,0,0,0,0
2022-12-19T00:54:00+09:00,1.5,��,2.8,��쐼,-1.6,61.1,0,0,0,0
2022-12-19T00:55:00+09:00,1.5,��,2.8,��쐼,-1.7,61.1,0,0,0,0
2022-12-19T00:56:00+09:00,1.6,��,4,��쓌,-1.9,61.8,0,0,0,0
2022-12-19T00:57:00+09:00,1.8,��,4,��쓌,-2,63.7,0,0,0,0
2022-12-19T00:58:00+09:00,1.9,��,4,��쓌,-2,64.1,0,0,0,0
2022-12-19T00:59:00+09:00,2,��쓌,4,��쓌,-1.8,64.1,0,0,0,0
2022-12-19T01:00:00+09:00,2.1,��쓌,4,��쓌,-1.8,62.2,0,0,0,0
2022-12-19T01:01:00+09:00,2.1,��쓌,4,��쓌,-1.9,61.6,0,0,0,0
2022-12-19T01:02:00+09:00,2.2,��쓌,4,��쓌,-2.1,63.2,0,0,0,0
2022-12-19T01:03:00+09:00,2.2,��쓌,4,��쓌,-2.4,64.6,0,0,0,0
2022-12-19T01:04:00+09:00,2.2,��쓌,4,��쓌,-2.6,66.3,0,0,0,0
2022-12-19T01:05:00+09:00,2.2,��쓌,4,��쓌,-2.7,68,0,0,0,0
2022-12-19T01:06:00+09:00,2.2,��쓌,3.6,��쓌,-2.7,69.2,0,0,0,0
2022-12-19T01:07:00+09:00,2,��쓌,3.6,��쓌,-2.7,68.2,0,0,0,0
2022-12-19T01:08:00+09:00,1.9,��쓌,3.2,��쓌,-2.6,68.6,0,0,0,0
2022-12-19T01:09:00+09:00,,,,,,,,,,
2022-12-19T01:10:00+09:00,1.8,��쓌,2.9,�쓌,-2,65.4,0,0,0,0
2022-12-19T01:11:00+09:00,1.7,��쓌,2.9,�쓌,-2,62.9,0,0,0,0
2022-12-19T01:12:00+09:00,1.7,��,2.5,��,-2.2,63,0,0,0,0
2022-12-19T01:13:00+09:00,1.7,��,2.5,��,-2.3,65.6,0,0,0,0
2022-12-19T01:14:00+09:00,1.7,��,2.5,��,-2.1,66.3,0,0,0,0
2022-12-19T01:15:00+09:00,1.7,��,2.6,��,-1.8,64.6,0,0,0,0
2022-12-19T01:16:00+09:00,1.7,��,2.6,��,-1.6,62.2,0,0,0,0
2022-12-19T01:17:00+09:00,1.7,��,2.6,��,-1.7,60.4,0,0,0,0
2022-12-19T01:18:00+09:00,1.7,��,2.6,��,-1.9,61.3,0,0,0,0
2022-12-19T01:19:00+09:00,1.7,��,2.6,��,-2,64.4,0,0,0,0
2022-12-19T01:20:00+09:00,1.7,��,2.6,��,-1.9,63.8,0,0,0,0
2022-12-19T01:21:00+09:00,1.7,��,2.7,��쓌,-1.9,62.9,0,0,0,0
2022-12-19T01:22:00+09:00,1.7,��,2.7,��쓌,-1.8,62.8,0,0,0,0
2022-12-19T01:23:00+09:00,1.7,��,2.7,��쓌,-2,62.1,0,0,0,0
2022-12-19T01:24:00+09:00,1.7,��,3,��쓌,-2,63.7,0,0,0,0
2022-12-19T01:25:00+09:00,1.8,��쓌,3,��쓌,-2,64.1,0,0,0,0
2022-12-19T01:26:00+09:00,1.8,��쓌,3,��쓌,-1.9,63.7,0,0,0,0
2022-12-19T01:27:00+09:00,1.9,��쓌,3.3,��,-1.8,62.8,0,0,0,0
2022-12-19T01:28:00+09:00,1.9,��쓌,3.3,��,-1.6,62.2,0,0,0,0
2022-12-19T01:29:00+09:00,2,��쓌,3.3,��,-1.5,60.8,0,0,0,0
2022-12-19T01:30:00+09:00,2.1,��쓌,3.3,��,-1.4,60.1,0,0,0,0
2022-12-19T01:31:00+09:00,2.1,��쓌,3.3,��,-1.4,59.8,0,0,0,0
2022-12-19T01:32:00+09:00,2.1,��,3.3,��,-1.3,59.4,0,0,0,0
2022-12-19T01:33:00+09:00,2.1,��,3.3,��,-1.3,59.1,0,0,0,0
2022-12-19T01:34:00+09:00,2,��,3.3,��,-1.3,58.8,0,0,0,0
2022-12-19T01:35:00+09:00,1.9,��,3.3,��,-1.3,58.9,0,0,0,0
2022-12-19T01:36:00+09:00,1.9,��,3.3,��,-1.3,59.2,0,0,0,0
2022-12-19T01:37:00+09:00,1.8,��,2.8,��쓌,-1.2,59.4,0,0,0,0
2022-12-19T01:38:00+09:00,1.8,��,2.8,��쓌,-1.2,58.9,0,0,0,0
2022-12-19T01:39:00+09:00,1.8,��,3.3,��쐼,-1.3,58.7,0,0,0,0
2022-12-19T01:40:00+09:00,1.8,��,3.3,��쐼,-1.3,59.1,0,0,0,0
2022-12-19T01:41:00+09:00,1.8,��,3.3,��쐼,-1.5,58.9,0,0,0,0
2022-12-19T01:42:00+09:00,1.8,��쓌,3.3,��쐼,-1.6,59.5,0,0,0,0
2022-12-19T01:43:00+09:00,1.8,��쓌,3.3,��쐼,-1.8,61.3,0,0,0,0
2022-12-19T01:44:00+09:00,1.8,��쓌,3.3,��쐼,-1.8,62.1,0,0,0,0
2022-12-19T01:45:00+09:00,1.9,��쓌,3.3,��쐼,-1.9,61.8,0,0,0,0
2022-12-19T01:46:00+09:00,1.9,��쓌,3.3,��쐼,-1.8,62.6,0,0,0,0
2022-12-19T01:47:00+09:00,1.8,��쓌,3.3,��쐼,-1.7,61.7,0,0,0,0
2022-12-19T01:48:00+09:00,1.8,�쓌,3.3,��쐼,-1.6,61.3,0,0,0,0
2022-12-19T01:49:00+09:00,1.7,�쓌,2.7,�쓌,-1.4,60.5,0,0,0,0
2022-12-19T01:50:00+09:00,1.8,�쓌,2.7,�쓌,-1.4,60,0,0,0,0
2022-12-19T01:51:00+09:00,1.7,��쓌,2.7,�쓌,-1.3,59.7,0,0,0,0
2022-12-19T01:52:00+09:00,1.7,��쓌,2.7,�쓌,-1.2,59.3,0,0,0,0
2022-12-19T01:53:00+09:00,1.7,��쓌,2.7,�쓌,-1.2,59,0,0,0,0
2022-12-19T01:54:00+09:00,1.6,��쓌,2.7,�쓌,-1.2,58.9,0,0,0,0
2022-12-19T01:55:00+09:00,1.5,��쓌,2.7,��,-1.2,59.3,0,0,0,0
2022-12-19T01:56:00+09:00,1.5,��쓌,2.7,��,-1.3,59.7,0,0,0,0
2022-12-19T01:57:00+09:00,1.4,��쓌,2.7,��,-1.2,59.8,0,0,0,0
2022-12-19T01:58:00+09:00,1.4,��쓌,2.7,��,-1.2,59.5,0,0,0,0
2022-12-19T01:59:00+09:00,1.3,��,2.7,��,-1.2,59.4,0,0,0,0
2022-12-19T02:00:00+09:00,1.3,��,2.7,��,-1.3,59.8,0,0,0,0
2022-12-19T02:01:00+09:00,1.3,��,3.1,��쐼,-1.3,60.4,0,0,0,0
2022-12-19T02:02:00+09:00,1.4,��,3.1,��쐼,-1.2,60.4,0,0,0,0
2022-12-19T02:03:00+09:00,1.5,��,3.6,��쐼,-1.3,60.2,0,0,0,0
2022-12-19T02:04:00+09:00,1.6,��,3.6,��쐼,-1.2,60.5,0,0,0,0
2022-12-19T02:05:00+09:00,1.8,��,3.6,��쐼,-1.3,60.6,0,0,0,0
2022-12-19T02:06:00+09:00,1.9,��쐼,3.6,��쐼,-1.3,60.8,0,0,0,0
2022-12-19T02:07:00+09:00,2.1,��쐼,3.6,��쐼,-1.3,61,0,0,0,0
2022-12-19T02:08:00+09:00,2.3,��쐼,3.6,��쐼,-1.3,61.2,0,0,0,0
2022-12-19T02:09:00+09:00,2.4,��쐼,3.6,��쐼,-1.3,61.2,0,0,0,0
2022-12-19T02:10:00+09:00,2.4,��쐼,3.9,��쐼,-1.4,61.3,0,0,0,0
2022-12-19T02:11:00+09:00,2.5,��쐼,4,�쐼,-1.4,61.5,0,0,0,0
2022-12-19T02:12:00+09:00,2.5,��쐼,4,�쐼,-1.4,61.8,0,0,0,0
2022-12-19T02:13:00+09:00,2.4,��쐼,4,�쐼,-1.4,62,0,0,0,0
2022-12-19T02:14:00+09:00,2.4,��쐼,4,�쐼,-1.5,62.4,0,0,0,0
2022-12-19T02:15:00+09:00,2.4,��쐼,4,�쐼,-1.4,62.6,0,0,0,0
2022-12-19T02:16:00+09:00,2.4,��쐼,4,�쐼,-1.4,62.6,0,0,0,0
2022-12-19T02:17:00+09:00,2.4,��쐼,4,�쐼,-1.4,62.6,0,0,0,0
2022-12-19T02:18:00+09:00,2.5,��쐼,4,�쐼,-1.4,62.7,0,0,0,0
2022-12-19T02:19:00+09:00,2.5,��쐼,4,�쐼,-1.4,62.6,0,0,0,0
2022-12-19T02:20:00+09:00,2.6,��쐼,4,�쐼,-1.4,62.6,0,0,0,0
2022-12-19T02:21:00+09:00,2.6,��쐼,4.5,��쐼,-1.3,62.7,0,0,0,0
2022-12-19T02:22:00+09:00,2.9,��쐼,5,��쐼,-1.3,62.2,0,0,0,0
2022-12-19T02:23:00+09:00,3,��쐼,5.3,��쐼,-1.2,62,0,0,0,0
2022-12-19T02:24:00+09:00,3.2,��쐼,5.4,�쐼,-1.2,61.7,0,0,0,0
2022-12-19T02:25:00+09:00,3.3,��쐼,5.4,�쐼,-1.1,61.6,0,0,0,0
2022-12-19T02:26:00+09:00,3.4,�쐼,5.4,�쐼,-1.1,61.5,0,0,0,0
2022-12-19T02:27:00+09:00,3.5,�쐼,5.4,�쐼,-1.1,61.6,0,0,0,0
2022-12-19T02:28:00+09:00,3.5,�쐼,5.6,��쐼,-1.1,61.5,0,0,0,0
2022-12-19T02:29:00+09:00,3.7,�쐼,5.8,�쐼,-1.1,61.7,0,0,0,0
2022-12-19T02:30:00+09:00,3.7,�쐼,5.8,�쐼,-1.1,61.7,0,0,0,0
2022-12-19T02:31:00+09:00,3.7,�쐼,5.8,�쐼,-1.1,61.6,0,0,0,0
2022-12-19T02:32:00+09:00,3.6,�쐼,5.8,�쐼,-1.1,61.8,0,0,0,0
2022-12-19T02:33:00+09:00,3.5,�쐼,5.8,�쐼,-1.1,61.9,0,0,0,0
2022-12-19T02:34:00+09:00,3.3,�쐼,5.8,�쐼,-1.1,62,0,0,0,0
2022-12-19T02:35:00+09:00,3.3,�쐼,5.8,�쐼,-1.1,62.1,0,0,0,0
2022-12-19T02:36:00+09:00,3.1,�쐼,5.8,�쐼,-1.2,62.2,0,0,0,0
2022-12-19T02:37:00+09:00,3,�쐼,5.8,�쐼,-1.2,62.5,0,0,0,0
2022-12-19T02:38:00+09:00,2.9,�쐼,5.8,�쐼,-1.2,63,0,0,0,0
2022-12-19T02:39:00+09:00,2.7,�쐼,4.8,�쐼,-1.2,62.7,0,0,0,0
2022-12-19T02:40:00+09:00,2.6,�쐼,4.8,�쐼,-1.2,62.7,0,0,0,0
2022-12-19T02:41:00+09:00,2.6,��쐼,4.4,��쐼,-1.2,62.6,0,0,0,0
2022-12-19T02:42:00+09:00,2.7,�쐼,5.1,�쐼,-1.2,62.6,0,0,0,0
2022-12-19T02:43:00+09:00,2.7,�쐼,5.1,�쐼,-1.2,62.6,0,0,0,0
2022-12-19T02:44:00+09:00,2.8,�쐼,5.1,�쐼,-1.2,62.7,0,0,0,0
2022-12-19T02:45:00+09:00,2.8,�쐼,5.1,�쐼,-1.2,62.9,0,0,0,0
2022-12-19T02:46:00+09:00,2.9,�쐼,5.1,�쐼,-1.2,62.7,0,0,0,0
2022-12-19T02:47:00+09:00,3,�쐼,5.1,�쐼,-1.1,62.7,0,0,0,0
2022-12-19T02:48:00+09:00,3.2,�쐼,5.1,�쐼,-1.2,62.7,0,0,0,0
2022-12-19T02:49:00+09:00,3.1,��쐼,5.1,�쐼,-1.2,62.9,0,0,0,0
2022-12-19T02:50:00+09:00,3.1,��쐼,5.1,�쐼,-1.2,63,0,0,0,0
2022-12-19T02:51:00+09:00,3.2,��쐼,5.3,��쐼,-1.2,63.3,0,0,0,0
2022-12-19T02:52:00+09:00,3,��쐼,5.3,��쐼,-1.2,63.2,0,0,0,0
2022-12-19T02:53:00+09:00,3,��쐼,5.3,��쐼,-1.2,63.2,0,0,0,0
2022-12-19T02:54:00+09:00,3,��쐼,5.4,��쐼,-1.2,63.1,0,0,0,0
2022-12-19T02:55:00+09:00,2.9,��쐼,5.4,��쐼,-1.2,63.1,0,0,0,0
2022-12-19T02:56:00+09:00,2.9,��쐼,5.4,��쐼,-1.2,63.6,0,0,0,0
2022-12-19T02:57:00+09:00,3,��쐼,6.1,�쐼,-1.3,63.9,0,0,0,0
2022-12-19T02:58:00+09:00,3.1,��쐼,6.2,��쐼,-1.2,63.9,0,0,0,0
2022-12-19T02:59:00+09:00,3.3,��쐼,6.2,��쐼,-1.2,63.9,0,0,0,0
2022-12-19T03:00:00+09:00,3.3,��쐼,6.2,��쐼,-1.2,63.6,0,0,0,0
2022-12-19T03:01:00+09:00,3.2,��쐼,6.2,��쐼,-1.2,63.5,0,0,0,0
2022-12-19T03:02:00+09:00,3.3,��쐼,6.2,��쐼,-1.2,63.9,0,0,0,0
2022-12-19T03:03:00+09:00,3.5,��쐼,6.2,��쐼,-1.2,64,0,0,0,0
2022-12-19T03:04:00+09:00,3.6,��쐼,6.2,��쐼,-1.2,63.8,0,0,0,0
2022-12-19T03:05:00+09:00,3.9,��쐼,6.8,��쐼,-1.2,64,0,0,0,0
2022-12-19T03:06:00+09:00,4,��쐼,6.9,�쐼,-1.2,63.8,0,0,0,0
2022-12-19T03:07:00+09:00,4.1,��쐼,6.9,�쐼,-1.2,63.7,0,0,0,0
2022-12-19T03:08:00+09:00,4.1,��쐼,7.1,��쐼,-1.3,63.8,0,0,0,0
2022-12-19T03:09:00+09:00,4.2,��쐼,8.1,��쐼,-1.2,64.5,0,0,0,0
2022-12-19T03:10:00+09:00,4.4,��쐼,8.1,��쐼,-1.3,64.3,0,0,0,0
2022-12-19T03:11:00+09:00,4.7,��쐼,8.1,��쐼,-1.2,64.4,0,0,0,0
2022-12-19T03:12:00+09:00,4.7,��쐼,8.1,��쐼,-1.2,64.2,0,0,0,0
2022-12-19T03:13:00+09:00,4.9,��쐼,8.2,�쐼,-1.1,64.2,0,0,0,0
2022-12-19T03:14:00+09:00,5.1,��쐼,8.2,�쐼,-1.1,63.9,0,0,0,0
2022-12-19T03:15:00+09:00,5,��쐼,8.2,�쐼,-1.1,63.6,0,0,0,0
2022-12-19T03:16:00+09:00,5,��쐼,8.2,�쐼,-1.1,63.7,0,0,0,0
2022-12-19T03:17:00+09:00,4.9,��쐼,8.2,�쐼,-1.1,64,0,0,0,0
2022-12-19T03:18:00+09:00,4.9,��쐼,8.2,�쐼,-1.2,64.2,0,0,0,0
2022-12-19T03:19:00+09:00,4.9,��쐼,8.2,�쐼,-1.2,64.6,0,0,0,0
2022-12-19T03:20:00+09:00,5,��쐼,8.2,�쐼,-1.2,64.9,0,0,0,0
2022-12-19T03:21:00+09:00,4.9,��쐼,8.2,�쐼,-1.2,64.6,0,0,0,0
2022-12-19T03:22:00+09:00,4.9,��쐼,8.2,�쐼,-1.2,64.4,0,0,0,0
2022-12-19T03:23:00+09:00,4.7,��쐼,7.5,�쐼,-1.2,64.5,0,0,0,0
2022-12-19T03:24:00+09:00,4.6,��쐼,7.1,��쐼,-1.1,64.2,0,0,0,0
2022-12-19T03:25:00+09:00,4.8,��쐼,7.6,�쐼,-1.1,64.3,0,0,0,0
2022-12-19T03:26:00+09:00,4.9,��쐼,7.6,�쐼,-1.1,63.8,0,0,0,0
2022-12-19T03:27:00+09:00,5.1,��쐼,7.6,�쐼,-1.1,63.5,0,0,0,0
2022-12-19T03:28:00+09:00,5.1,��쐼,7.6,�쐼,-1,63.3,0,0,0,0
2022-12-19T03:29:00+09:00,5,��쐼,7.6,�쐼,-1,63.4,0,0,0,0
2022-12-19T03:30:00+09:00,4.8,��쐼,7.6,�쐼,-1,63.4,0,0,0,0
2022-12-19T03:31:00+09:00,4.7,�쐼,7.6,�쐼,-1.1,63.6,0,0,0,0
2022-12-19T03:32:00+09:00,4.6,��쐼,7.6,�쐼,-1.1,63.6,0,0,0,0
2022-12-19T03:33:00+09:00,4.6,��쐼,7.6,�쐼,-1.1,63.5,0,0,0,0
2022-12-19T03:34:00+09:00,4.4,��쐼,7.6,�쐼,-1.1,63.9,0,0,0,0
2022-12-19T03:35:00+09:00,4.3,��쐼,7.6,�쐼,-1.1,64.4,0,0,0,0
2022-12-19T03:36:00+09:00,4.1,��쐼,7.6,�쐼,-1.2,64.5,0,0,0,0
2022-12-19T03:37:00+09:00,3.9,��쐼,6.8,�쐼,-1.2,64.6,0,0,0,0
2022-12-19T03:38:00+09:00,3.7,��쐼,6.8,�쐼,-1.2,64.6,0,0,0,0
2022-12-19T03:39:00+09:00,3.7,��쐼,6.8,�쐼,-1.2,64.7,0,0,0,0
2022-12-19T03:40:00+09:00,3.8,��쐼,6.8,�쐼,-1.2,64.8,0,0,0,0
2022-12-19T03:41:00+09:00,3.7,��쐼,6.5,��쐼,-1.2,64.4,0,0,0,0
2022-12-19T03:42:00+09:00,3.7,��쐼,6.5,��쐼,-1.2,64.5,0,0,0,0
2022-12-19T03:43:00+09:00,3.6,��쐼,6.5,��쐼,-1.2,64.4,0,0,0,0
2022-12-19T03:44:00+09:00,3.6,�쐼,6.5,��쐼,-1.2,64.6,0,0,0,0
2022-12-19T03:45:00+09:00,3.5,�쐼,5.8,��쐼,-1.2,64.4,0,0,0,0
2022-12-19T03:46:00+09:00,3.4,�쐼,5.8,��쐼,-1.3,64,0,0,0,0
2022-12-19T03:47:00+09:00,3.5,�쐼,7.1,��쐼,-1.2,64.3,0,0,0,0
2022-12-19T03:48:00+09:00,3.7,�쐼,7.1,��쐼,-1.2,64.5,0,0,0,0
2022-12-19T03:49:00+09:00,3.7,�쐼,7.1,��쐼,-1.2,64.1,0,0,0,0
2022-12-19T03:50:00+09:00,3.6,�쐼,7.1,��쐼,-1.2,63.9,0,0,0,0
2022-12-19T03:51:00+09:00,3.6,�쐼,7.1,��쐼,-1.2,63.9,0,0,0,0
2022-12-19T03:52:00+09:00,3.6,�쐼,7.1,��쐼,-1.2,63.9,0,0,0,0
2022-12-19T03:53:00+09:00,3.7,��쐼,7.1,��쐼,-1.2,63.8,0,0,0,0
2022-12-19T03:54:00+09:00,3.7,��쐼,7.1,��쐼,-1.2,63.6,0,0,0,0
2022-12-19T03:55:00+09:00,3.8,��쐼,7.1,��쐼,-1.2,63.8,0,0,0,0
2022-12-19T03:56:00+09:00,3.9,��쐼,7.1,��쐼,-1.2,63.9,0,0,0,0
2022-12-19T03:57:00+09:00,3.8,��쐼,6.4,��쐼,-1.2,64.1,0,0,0,0
2022-12-19T03:58:00+09:00,3.6,��쐼,5.8,��쐼,-1.3,64.3,0,0,0,0
2022-12-19T03:59:00+09:00,3.5,��쐼,5.8,��쐼,-1.3,64.3,0,0,0,0
2022-12-19T04:00:00+09:00,3.4,��쐼,5.8,��쐼,-1.3,64.4,0,0,0,0
2022-12-19T04:01:00+09:00,3.4,��쐼,5.5,��쐼,-1.3,64.5,0,0,0,0
2022-12-19T04:02:00+09:00,3.3,��쐼,5.5,��쐼,-1.3,64.6,0,0,0,0
2022-12-19T04:03:00+09:00,3.4,��쐼,5.5,��쐼,-1.3,64.8,0,0,0,0
2022-12-19T04:04:00+09:00,3.6,��쐼,5.5,��쐼,-1.4,65.1,0,0,0,0
2022-12-19T04:05:00+09:00,3.6,��쐼,5.5,��쐼,-1.4,65.4,0,0,0,0
2022-12-19T04:06:00+09:00,3.7,��쐼,5.7,��쐼,-1.4,65.5,0,0,0,0
2022-12-19T04:07:00+09:00,3.8,��쐼,5.7,��쐼,-1.4,65.6,0,0,0,0
2022-12-19T04:08:00+09:00,3.9,��쐼,5.7,��쐼,-1.4,65.4,0,0,0,0
2022-12-19T04:09:00+09:00,4,��쐼,5.7,��쐼,-1.4,65.4,0,0,0,0
2022-12-19T04:10:00+09:00,4.2,��쐼,5.7,��쐼,-1.4,65.5,0,0,0,0
2022-12-19T04:11:00+09:00,4.3,��쐼,5.7,��쐼,-1.4,65.4,0,0,0,0
2022-12-19T04:12:00+09:00,4.3,��쐼,5.7,��쐼,-1.4,65.2,0,0,0,0
2022-12-19T04:13:00+09:00,4.1,��쐼,5.7,��쐼,-1.4,65.1,0,0,0,0
2022-12-19T04:14:00+09:00,4.1,��쐼,5.7,��쐼,-1.3,64.8,0,0,0,0
2022-12-19T04:15:00+09:00,4,��쐼,5.7,��쐼,-1.3,64.4,0,0,0,0
2022-12-19T04:16:00+09:00,3.8,��쐼,5.6,��쐼,-1.3,64.4,0,0,0,0
2022-12-19T04:17:00+09:00,3.7,��쐼,5.6,��쐼,-1.3,64.3,0,0,0,0
2022-12-19T04:18:00+09:00,3.5,��쐼,5.6,��쐼,-1.3,64,0,0,0,0
2022-12-19T04:19:00+09:00,3.4,��쐼,5.6,��쐼,-1.3,64.1,0,0,0,0
2022-12-19T04:20:00+09:00,3.3,��쐼,5.6,��쐼,-1.3,64.3,0,0,0,0
2022-12-19T04:21:00+09:00,3,��쐼,5.4,��쐼,-1.2,64,0,0,0,0
2022-12-19T04:22:00+09:00,2.9,��쐼,5.4,��쐼,-1.2,63.7,0,0,0,0
2022-12-19T04:23:00+09:00,2.8,��쐼,5.4,��쐼,-1.3,63.8,0,0,0,0
2022-12-19T04:24:00+09:00,2.5,��쐼,5.4,��쐼,-1.3,63.6,0,0,0,0
2022-12-19T04:25:00+09:00,2.3,��쐼,5.4,��쐼,-1.3,63.6,0,0,0,0
2022-12-19T04:26:00+09:00,2,��쐼,5.4,��쐼,-1.3,63.7,0,0,0,0
2022-12-19T04:27:00+09:00,1.9,��쐼,5.4,��쐼,-1.3,63.7,0,0,0,0
2022-12-19T04:28:00+09:00,1.8,��쐼,5.4,��쐼,-1.3,63.7,0,0,0,0
2022-12-19T04:29:00+09:00,1.7,��쐼,5.4,��쐼,-1.3,63.8,0,0,0,0
2022-12-19T04:30:00+09:00,1.5,��쐼,4.4,��쐼,-1.3,63.8,0,0,0,0
2022-12-19T04:31:00+09:00,1.4,��쐼,4.1,�쓌,-1.3,63.6,0,0,0,0
2022-12-19T04:32:00+09:00,1.3,��쐼,4.1,�쓌,-1.3,63.7,0,0,0,0
2022-12-19T04:33:00+09:00,1.2,��쐼,4.1,�쓌,-1.2,63.7,0,0,0,0
2022-12-19T04:34:00+09:00,1.1,��쐼,4.1,�쓌,-1.3,63.7,0,0,0,0
2022-12-19T04:35:00+09:00,1.2,��쐼,4.1,�쓌,-1.3,63.7,0,0,0,0
2022-12-19T04:36:00+09:00,1.2,��쐼,4.1,�쓌,-1.3,64,0,0,0,0
2022-12-19T04:37:00+09:00,1.1,�쐼,4.1,�쓌,-1.4,64.4,0,0,0,0
2022-12-19T04:38:00+09:00,1,�쐼,3,��쓌,-1.3,64.1,0,0,0,0
2022-12-19T04:39:00+09:00,1,�쐼,3.4,�쐼,-1.3,64,0,0,0,0
2022-12-19T04:40:00+09:00,1.1,�쐼,3.4,�쐼,-1.3,64.1,0,0,0,0
2022-12-19T04:41:00+09:00,1.3,�쐼,3.4,�쐼,-1.3,64.4,0,0,0,0
2022-12-19T04:42:00+09:00,1.5,�쐼,3.6,��쐼,-1.3,64.3,0,0,0,0
2022-12-19T04:43:00+09:00,1.5,�쐼,3.6,��쐼,-1.3,64.3,0,0,0,0
2022-12-19T04:44:00+09:00,1.7,�쐼,3.6,��쐼,-1.4,64.3,0,0,0,0
2022-12-19T04:45:00+09:00,1.6,�쐼,3.6,��쐼,-1.4,64,0,0,0,0
2022-12-19T04:46:00+09:00,1.8,�쐼,3.6,��쐼,-1.4,64.5,0,0,0,0
2022-12-19T04:47:00+09:00,2,�쐼,3.6,��쐼,-1.4,64.6,0,0,0,0
2022-12-19T04:48:00+09:00,2.1,��쐼,3.6,��쐼,-1.3,64.5,0,0,0,0
2022-12-19T04:49:00+09:00,2.2,��쐼,4.8,��쐼,-1.3,64.6,0,0,0,0
2022-12-19T04:50:00+09:00,2.2,��쐼,4.8,��쐼,-1.2,63.9,0,0,0,0
2022-12-19T04:51:00+09:00,2.1,��쐼,4.8,��쐼,-1.2,63.6,0,0,0,0
2022-12-19T04:52:00+09:00,2.1,�쐼,4.8,��쐼,-1.2,63.7,0,0,0,0
2022-12-19T04:53:00+09:00,2.3,�쐼,4.8,��쐼,-1.1,63.5,0,0,0,0
2022-12-19T04:54:00+09:00,2.3,��쐼,4.8,��쐼,-1.1,62.8,0,0,0,0
2022-12-19T04:55:00+09:00,2.4,��쐼,4.8,��쐼,-1.1,63,0,0,0,0
2022-12-19T04:56:00+09:00,2.4,��쐼,4.8,��쐼,-1.1,62.9,0,0,0,0
2022-12-19T04:57:00+09:00,2.4,��쐼,4.8,��쐼,-1.1,62.7,0,0,0,0
2022-12-19T04:58:00+09:00,2.5,��쐼,5.1,��,-1.1,62.9,0,0,0,0
2022-12-19T04:59:00+09:00,2.4,��쐼,5.1,��,-1,62.9,0,0,0,0
2022-12-19T05:00:00+09:00,2.5,��쐼,5.5,��쐼,-1,62.8,0,0,0,0
2022-12-19T05:01:00+09:00,2.6,��쐼,5.5,��쐼,-0.9,62.4,0,0,0,0
2022-12-19T05:02:00+09:00,2.6,��쐼,5.5,��쐼,-1,62.4,0,0,0,0
2022-12-19T05:03:00+09:00,2.5,��쐼,5.5,��쐼,-1,62.2,0,0,0,0
2022-12-19T05:04:00+09:00,2.6,��쐼,5.5,��쐼,-0.9,62.3,0,0,0,0
2022-12-19T05:05:00+09:00,2.7,��쐼,5.5,��쐼,-0.9,62.1,0,0,0,0
2022-12-19T05:06:00+09:00,2.9,��쐼,5.7,��쐼,-0.9,61.8,0,0,0,0
2022-12-19T05:07:00+09:00,3,��쐼,5.7,��쐼,-0.9,61.8,0,0,0,0
2022-12-19T05:08:00+09:00,2.9,��쐼,5.7,��쐼,-0.9,61.9,0,0,0,0
2022-12-19T05:09:00+09:00,2.9,��쐼,5.7,��쐼,-0.9,62.1,0,0,0,0
2022-12-19T05:10:00+09:00,2.9,��쐼,5.7,��쐼,-1,62.5,0,0,0,0
2022-12-19T05:11:00+09:00,3,��쐼,5.7,��쐼,-1,62.9,0,0,0,0
2022-12-19T05:12:00+09:00,3.1,��쐼,5.7,��쐼,-1,62.9,0,0,0,0
2022-12-19T05:13:00+09:00,3.1,��쐼,5.7,��쐼,-1,63,0,0,0,0
2022-12-19T05:14:00+09:00,3.2,��쐼,5.7,��쐼,-1,63.1,0,0,0,0
2022-12-19T05:15:00+09:00,3.1,��쐼,5.7,��쐼,-1,63.1,0,0,0,0
2022-12-19T05:16:00+09:00,2.9,��쐼,5.7,��쐼,-1.1,63.3,0,0,0,0
2022-12-19T05:17:00+09:00,2.8,��쐼,5.7,��쐼,-1.1,63.4,0,0,0,0
2022-12-19T05:18:00+09:00,2.7,��쐼,5.7,��쐼,-1.1,63.7,0,0,0,0
2022-12-19T05:19:00+09:00,2.6,��쐼,5.7,��쐼,-1.1,63.9,0,0,0,0
2022-12-19T05:20:00+09:00,2.6,��쐼,5.7,��쐼,-1.1,64,0,0,0,0
2022-12-19T05:21:00+09:00,2.5,��쐼,5.2,��쐼,-1.1,63.9,0,0,0,0
2022-12-19T05:22:00+09:00,2.6,��쐼,5.3,��,-1,63.9,0,0,0,0
2022-12-19T05:23:00+09:00,2.7,��쐼,6.4,��쐼,-1,63.7,0,0,0,0
2022-12-19T05:24:00+09:00,2.8,��쐼,6.4,��쐼,-0.9,63.7,0,0,0,0
2022-12-19T05:25:00+09:00,2.9,��쐼,6.4,��쐼,-0.9,63.6,0,0,0,0
2022-12-19T05:26:00+09:00,3.1,��쐼,6.4,��쐼,-0.9,63.5,0,0,0,0
2022-12-19T05:27:00+09:00,3.1,��쐼,6.4,��쐼,-0.9,63.5,0,0,0,0
2022-12-19T05:28:00+09:00,3.4,��쐼,6.4,��쐼,-0.9,63.7,0,0,0,0
2022-12-19T05:29:00+09:00,3.6,��쐼,6.4,��쐼,-0.9,63.7,0,0,0,0
2022-12-19T05:30:00+09:00,3.6,��쐼,6.4,��쐼,-0.9,63.6,0,0,0,0
2022-12-19T05:31:00+09:00,3.5,��쐼,6.4,��쐼,-0.9,63.7,0,0,0,0
2022-12-19T05:32:00+09:00,3.3,��쐼,6.4,��쐼,-0.9,63.9,0,0,0,0
2022-12-19T05:33:00+09:00,3.3,��쐼,6.6,��쐼,-0.9,64.1,0,0,0,0
2022-12-19T05:34:00+09:00,3.5,��쐼,6.6,��쐼,-0.9,64,0,0,0,0
2022-12-19T05:35:00+09:00,3.7,��쐼,8,�쐼,-0.9,64.1,0,0,0,0
2022-12-19T05:36:00+09:00,3.7,��쐼,8,�쐼,-0.9,63.9,0,0,0,0
2022-12-19T05:37:00+09:00,3.9,��쐼,8,�쐼,-0.9,64,0,0,0,0
2022-12-19T05:38:00+09:00,3.8,��쐼,8,�쐼,-0.9,64.2,0,0,0,0
2022-12-19T05:39:00+09:00,3.9,��쐼,8,�쐼,-0.9,64.3,0,0,0,0
2022-12-19T05:40:00+09:00,4,��쐼,8,�쐼,-0.9,64,0,0,0,0
2022-12-19T05:41:00+09:00,4.3,��쐼,8,�쐼,-0.9,64.1,0,0,0,0
2022-12-19T05:42:00+09:00,4.6,��쐼,8,�쐼,-0.9,64,0,0,0,0
2022-12-19T05:43:00+09:00,4.6,��쐼,8,�쐼,-0.8,63.9,0,0,0,0
2022-12-19T05:44:00+09:00,4.7,��쐼,8.5,��쐼,-0.8,63.8,0,0,0,0
2022-12-19T05:45:00+09:00,4.7,��쐼,8.5,��쐼,-0.8,63.8,0,0,0,0
2022-12-19T05:46:00+09:00,4.8,��쐼,8.5,��쐼,-0.8,63.7,0,0,0,0
2022-12-19T05:47:00+09:00,4.9,��쐼,8.5,��쐼,-0.8,63.7,0,0,0,0
2022-12-19T05:48:00+09:00,4.9,��쐼,8.5,��쐼,-0.8,63.7,0,0,0,0
2022-12-19T05:49:00+09:00,4.8,��쐼,8.5,��쐼,-0.9,64,0,0,0,0
2022-12-19T05:50:00+09:00,4.9,��쐼,8.5,��쐼,-0.9,64.1,0,0,0,0
2022-12-19T05:51:00+09:00,4.8,��쐼,8.5,��쐼,-0.9,64.4,0,0,0,0
2022-12-19T05:52:00+09:00,4.7,��쐼,8.5,��쐼,-0.9,64.4,0,0,0,0
2022-12-19T05:53:00+09:00,4.7,��쐼,8.5,��쐼,-0.9,64.4,0,0,0,0
2022-12-19T05:54:00+09:00,4.6,��쐼,7.9,��쐼,-0.9,64.3,0,0,0,0
2022-12-19T05:55:00+09:00,4.5,��쐼,7.9,��쐼,-0.9,64.5,0,0,0,0
2022-12-19T05:56:00+09:00,4.4,��쐼,7.4,��,-1,64.5,0,0,0,0
2022-12-19T05:57:00+09:00,4.6,��쐼,7.5,��쐼,-0.9,64.8,0,0,0,0
2022-12-19T05:58:00+09:00,4.5,��쐼,7.5,��쐼,-0.9,64.5,0,0,0,0
2022-12-19T05:59:00+09:00,4.5,��쐼,7.5,��쐼,-0.9,64.3,0,0,0,0
2022-12-19T06:00:00+09:00,4.4,��쐼,7.5,��쐼,-0.9,64.3,0,0,0,0
2022-12-19T06:01:00+09:00,4.3,��쐼,7.5,��쐼,-1,64.5,0,0,0,0
2022-12-19T06:02:00+09:00,4.1,��쐼,7.5,��쐼,-1,64.6,0,0,0,0
2022-12-19T06:03:00+09:00,4,��쐼,7.5,��쐼,-1,65,0,0,0,0
2022-12-19T06:04:00+09:00,4,��쐼,7.5,��쐼,-1,65.1,0,0,0,0
2022-12-19T06:05:00+09:00,3.8,��쐼,7.5,��쐼,-1,64.8,0,0,0,0
2022-12-19T06:06:00+09:00,3.8,��쐼,7.5,��쐼,-1,64.8,0,0,0,0
2022-12-19T06:07:00+09:00,3.6,��쐼,6.1,��쐼,-1,64.8,0,0,0,0
2022-12-19T06:08:00+09:00,3.6,��,6.1,��쐼,-1,64.9,0,0,0,0
2022-12-19T06:09:00+09:00,3.7,��,6.1,��쐼,-1,64.9,0,0,0,0
2022-12-19T06:10:00+09:00,3.7,��,6.1,��쐼,-1,64.8,0,0,0,0
2022-12-19T06:11:00+09:00,3.6,��쐼,6.1,��쐼,-1,64.7,0,0,0,0
2022-12-19T06:12:00+09:00,3.5,��쐼,6.1,��쐼,-1.1,64.8,0,0,0,0
2022-12-19T06:13:00+09:00,3.6,��쐼,6.1,��쐼,-1.1,65.2,0,0,0,0
2022-12-19T06:14:00+09:00,3.5,��쐼,6.1,��쐼,-1.1,65.4,0,0,0,0
2022-12-19T06:15:00+09:00,3.5,��쐼,6.1,��쐼,-1.1,65.4,0,0,0,0
2022-12-19T06:16:00+09:00,3.3,��쐼,6.1,��쐼,-1.2,65.4,0,0,0,0
2022-12-19T06:17:00+09:00,3.1,��쐼,6.1,��쐼,-1.2,65.5,0,0,0,0
2022-12-19T06:18:00+09:00,2.9,��쐼,6.1,��쐼,-1.2,65.8,0,0,0,0
2022-12-19T06:19:00+09:00,2.8,��쐼,5.1,��쐼,-1.2,66.1,0,0,0,0
2022-12-19T06:20:00+09:00,2.8,��쐼,5.2,��,-1.2,66.3,0,0,0,0
2022-12-19T06:21:00+09:00,2.9,��쐼,5.2,��,-1.2,65.9,0,0,0,0
2022-12-19T06:22:00+09:00,3,��쐼,5.2,��,-1.2,65.8,0,0,0,0
2022-12-19T06:23:00+09:00,3,��쐼,5.2,��,-1.2,65.9,0,0,0,0
2022-12-19T06:24:00+09:00,2.9,��쐼,5.2,��,-1.2,65.7,0,0,0,0
2022-12-19T06:25:00+09:00,3,��쐼,5.2,��,-1.2,65.8,0,0,0,0
2022-12-19T06:26:00+09:00,3.2,��쐼,5.4,��쐼,-1.2,66,0,0,0,0
2022-12-19T06:27:00+09:00,3.5,��쐼,5.4,��쐼,-1.2,66,0,0,0,0
2022-12-19T06:28:00+09:00,3.5,��쐼,5.4,��쐼,-1.2,65.9,0,0,0,0
2022-12-19T06:29:00+09:00,3.4,��쐼,5.4,��쐼,-1.2,65.9,0,0,0,0
2022-12-19T06:30:00+09:00,3.3,��쐼,5.4,��쐼,-1.2,66.4,0,0,0,0
2022-12-19T06:31:00+09:00,3.3,��쐼,6.5,��쐼,-1.2,66.6,0,0,0,0
2022-12-19T06:32:00+09:00,3.3,��쐼,6.5,��쐼,-1.2,66.6,0,0,0,0
2022-12-19T06:33:00+09:00,3.3,��쐼,6.5,��쐼,-1.2,66.8,0,0,0,0
2022-12-19T06:34:00+09:00,3.3,��쐼,6.5,��쐼,-1.2,66.8,0,0,0,0
2022-12-19T06:35:00+09:00,3.5,��쐼,7.3,��,-1.2,66.7,0,0,0,0
2022-12-19T06:36:00+09:00,3.5,��쐼,7.3,��,-1.1,66.6,0,0,0,0
2022-12-19T06:37:00+09:00,3.6,��쐼,7.3,��,-1.1,66.3,0,0,0,0
2022-12-19T06:38:00+09:00,3.7,��쐼,7.3,��,-1.1,65.9,0,0,0,0
2022-12-19T06:39:00+09:00,3.9,��쐼,7.3,��,-1,65.7,0,0,0,0
2022-12-19T06:40:00+09:00,4,��쐼,7.3,��,-1,65.6,0,0,0,0
2022-12-19T06:41:00+09:00,4.1,��쐼,7.3,��,-1,65.5,0,0,0,0
2022-12-19T06:42:00+09:00,4.2,��쐼,7.3,��,-0.9,65.1,0,0,0,0
2022-12-19T06:43:00+09:00,4.2,��쐼,7.3,��,-1,65,0,0,0,0
2022-12-19T06:44:00+09:00,4.3,��쐼,7.3,��,-1,65.3,0,0,0,0
2022-12-19T06:45:00+09:00,4.2,��쐼,7,��쐼,-1,65.7,0,0,0,0
2022-12-19T06:46:00+09:00,4.2,��쐼,6.8,��쐼,-1,65.4,0,0,0,0
2022-12-19T06:47:00+09:00,4.2,��쐼,6.8,��쐼,-0.9,65.3,0,0,0,0